Tracking 35334 objects as of 13-Sep-2026
HD Live streaming from Space Station
objects crossing your sky now

IOD2_STARTICAL

Track IOD2_STARTICAL now!
10-day predictions
IOD2_STARTICAL is classified as:


NORAD ID: 64538
Int'l Code: 2025-135L
Launch date: June 23, 2025
Source: Spain (SPN)
Launch site: AIR FORCE WESTERN TEST RANGE (AFWTR)
Your satellite tracking list
Your tracking list is empty




NASA's NSSDC Master Catalog

Two Line Element Set (TLE):
1 64538U 25135L   26255.89712787  .00003048  00000-0  14086-3 0  9998
2 64538  97.4776   9.7543 0003536 215.0829 145.0174 15.20944068 68151
Source of the keplerian elements: AFSPC